Regional Weather Roundup
Issued by NWS Albany, NY

Home | Current Version | Previous Version | Graphics & Text | Print | Product List | Glossary On
Versions: 1 2 3 4 5 6 7 8 9 10 11 12 13 14 15 16 17 18 19 20 21 22 23 24 25 26 27
000
ASUS41 KALY 272310
RWRALY

NEW YORK STATE HOURLY WEATHER ROUNDUP
NATIONAL WEATHER SERVICE ALBANY NY
700 PM EDT FRI MAY 27 2016

NOTE: "FAIR" INDICATES FEW OR NO CLOUDS BELOW 12,000 FEET WITH NO
SIGNIFICANT WEATHER AND/OR NO OBSTRUCTIONS TO VISIBILITY.

NYZ032-033-038>043-046>054-057>066-NYZ062>081-082-084-280000-
EAST


CITY           SKY/WX    TMP DP  RH WIND       PRES   REMARKS
ALBANY         CLOUDY    80  64  58 S10       29.97R
GLENS FALLS    CLOUDY    85  65  51 S9        29.94S
POUGHKEEPSIE   SUNNY     80  70  71 S6        29.99F
NEWBURGH       MOSUNNY   77  72  83 SE9       30.02F
MONTGOMERY     SUNNY     80  73  79 CALM      30.00F
WHITE PLAINS   MOSUNNY   75  63  66 SE7       30.03S
ISLIP          PTSUNNY   70  60  70 SW12      30.06R
NEW YORK CITY  PTSUNNY   79  68  69 S12       30.00S
CENTRAL PARK   MOSUNNY   80  63  55 S3        30.03S
$$

NYZ005>009-017-018-044>046-055-056-280000-
CENTRAL


CITY           SKY/WX    TMP DP  RH WIND       PRES   REMARKS
FULTON         MOSUNNY   82  70  66 CALM      29.97S
SYRACUSE       PTSUNNY   81  65  58 CALM      29.97R
ROME           CLOUDY    81  67  62 SW5       29.98R
ELMIRA         CLOUDY    84  64  50 SE3       29.98S
BINGHAMTON     CLOUDY    73  65  75 CALM      30.04S
MONTICELLO     SUNNY     79  66  65 S7        30.06S
$$

NYZ026>034-041>043-087-280000-
NORTH


CITY           SKY/WX    TMP DP  RH WIND       PRES   REMARKS
WATERTOWN      MOSUNNY   76  66  71 SW8       29.96S
FORT DRUM      NOT AVBL
MASSENA        MOSUNNY   83  64  52 SW14G21   29.91R
SARANAC LAKE   SUNNY     82  58  43 VRB7      29.97S
PLATTSBURGH    SUNNY     90  60  36 VRB5      29.87S
$$

NYZ001>004-010>016-019>021-085-280000-
WEST


CITY           SKY/WX    TMP DP  RH WIND       PRES   REMARKS
NIAGARA FALLS  PTSUNNY   82  62  50 SW9       29.97R
BUFFALO        CLOUDY    74  63  68 SW10      29.99S
DUNKIRK        CLOUDY    77  64  64 SW7       30.00S
JAMESTOWN      MOSUNNY   77  63  61 NW9       30.05R
WELLSVILLE     MOSUNNY   79  59  50 SW8       30.06S
ROCHESTER      PTSUNNY   85  58  39 W8        29.97R
PENN YAN       PTSUNNY   81  67  62 VRB3      30.00R
$$

             KEY
       WCI = WIND CHILL INDEX
       VSB = VISIBILITY
       HX  = HEAT INDEX
$$




USA.gov is the U.S. government's official web portal to all federal, state and local government web resources and services.